Bellefontaine, OH

10:24 AM EDT on April 23, 2017 (GMT -0400)
Bellefontaine

Weather History for KEDJ - October, 2013

Change the Weather History Date:

Friday, October 25, 2013

  Actual Average (KDAY) Record (KDAY)
Temperature  
Mean Temperature 36 °F -  
Max Temperature 46 °F 59 °F 83 °F (1963)
Min Temperature 26 °F 41 °F 25 °F (1962)
Degree Days  
Heating Degree Days 29    
Moisture  
Dew Point 28 °F    
Average Humidity 78    
Maximum Humidity 100    
Minimum Humidity 43    
Precipitation  
Precipitation 0.00 in - - ()
Sea Level Pressure  
Sea Level Pressure 30.28 in    
Wind  
Wind Speed 4 mph (WSW)    
Max Wind Speed 15 mph    
Max Gust Speed 21 mph    
Visibility 10 miles    
Events      
Averages and records for this station are not official NWS values.
T = Trace of Precipitation, MM = Missing Value Source: NWS Daily Summary

Daily Weather History Graph

Daily Weather History Graph

Search for Another Location

Airport or City:

Trip Planner

Search our weather history database for the weather conditions in past years. The results will help you decide how hot, cold, wet, or windy it might be!

Date:

Astronomy

Oct. 25, 2013 Rise Set
Actual Time 7:57 AM EDT 6:40 PM EDT
Civil Twilight 7:29 AM EDT 7:08 PM EDT
Nautical Twilight 6:57 AM EDT 7:40 PM EDT
Astronomical Twilight 6:25 AM EDT 8:11 PM EDT
Moon 11:59 PM EDT (10/25) 1:37 PM EDT (10/25)
Length of Visible Light 11h 39m
Length of Day
10h 43m
Waning Gibbous, 62% of the Moon is Illuminated
Oct 25
Waning Gibbous
Oct 26
Last Quarter
Nov 3
New
Nov 10
First Quarter
Nov 17
Full

Hourly Weather History & Observations

Time (EDT) Temp. Windchill Dew Point Humidity Pressure Visibility Wind Dir Wind Speed Gust Speed Precip Events Conditions
12:10 AM 30.2 °F - 30.2 °F 100% 30.20 in 10.0 mi Calm Calm - 0.00 in   Clear
12:30 AM 30.2 °F - 30.2 °F 100% 30.20 in 10.0 mi Calm Calm - 0.00 in   Clear
12:50 AM 32.0 °F - 30.2 °F 93% 30.21 in 10.0 mi Calm Calm - 0.00 in   Clear
1:10 AM 30.2 °F - 30.2 °F 100% 30.21 in 10.0 mi Calm Calm - 0.00 in   Clear
1:30 AM 30.2 °F 25.4 °F 30.2 °F 100% 30.22 in 10.0 mi West 4.6 mph - 0.00 in   Clear
1:50 AM 30.2 °F 25.4 °F 30.2 °F 100% 30.22 in 10.0 mi WSW 4.6 mph - 0.00 in   Clear
2:10 AM 30.2 °F 25.4 °F 30.2 °F 100% 30.22 in 10.0 mi West 4.6 mph - 0.00 in   Clear
2:30 AM 28.4 °F 23.3 °F 28.4 °F 100% 30.22 in 10.0 mi West 4.6 mph - 0.00 in   Clear
2:50 AM 30.2 °F 25.4 °F 28.4 °F 93% 30.23 in 10.0 mi West 4.6 mph - 0.00 in   Clear
3:10 AM 28.4 °F 24.6 °F 28.4 °F 100% 30.23 in 10.0 mi West 3.5 mph - 0.00 in   Clear
3:30 AM 28.4 °F - 26.6 °F 93% 30.24 in 10.0 mi Calm Calm - 0.00 in   Clear
3:50 AM 28.4 °F - 26.6 °F 93% 30.25 in 10.0 mi Calm Calm - 0.00 in   Clear
4:10 AM 28.4 °F - 28.4 °F 100% 30.25 in 10.0 mi Calm Calm - 0.00 in   Clear
4:30 AM 28.4 °F - 26.6 °F 93% 30.25 in 10.0 mi Calm Calm - 0.00 in   Clear
4:50 AM 28.4 °F - 26.6 °F 93% 30.26 in 10.0 mi Calm Calm - 0.00 in   Clear
5:10 AM 28.4 °F - 26.6 °F 93% 30.26 in 10.0 mi Calm Calm - 0.00 in   Clear
5:30 AM 28.4 °F - 26.6 °F 93% 30.27 in 10.0 mi Calm Calm - 0.00 in   Clear
5:50 AM 26.6 °F - 26.6 °F 100% 30.28 in 10.0 mi Calm Calm - 0.00 in   Clear
6:10 AM 28.4 °F - 26.6 °F 93% 30.28 in 10.0 mi Calm Calm - 0.00 in   Clear
6:30 AM 28.4 °F - 26.6 °F 93% 30.29 in 10.0 mi Calm Calm - 0.00 in   Clear
6:50 AM 26.6 °F - 26.6 °F 100% 30.30 in 10.0 mi Calm Calm - 0.00 in   Clear
7:10 AM 26.6 °F - 26.6 °F 100% 30.30 in 10.0 mi Calm Calm - 0.00 in   Clear
7:30 AM 26.6 °F 21.2 °F 26.6 °F 100% 30.31 in 10.0 mi WSW 4.6 mph - 0.00 in   Clear
7:50 AM 28.4 °F 23.3 °F 26.6 °F 93% 30.31 in 10.0 mi WSW 4.6 mph - 0.00 in   Clear
8:10 AM 28.4 °F 23.3 °F 26.6 °F 93% 30.32 in 10.0 mi WSW 4.6 mph - 0.00 in   Clear
8:30 AM 28.4 °F 22.2 °F 26.6 °F 93% 30.33 in 10.0 mi WSW 5.8 mph - 0.00 in   Clear
8:50 AM 30.2 °F 23.4 °F 28.4 °F 93% 30.33 in 10.0 mi WSW 6.9 mph - 0.00 in   Clear
9:10 AM 30.2 °F 22.6 °F 28.4 °F 93% 30.34 in 10.0 mi WSW 8.1 mph - 0.00 in   Clear
9:30 AM 32.0 °F 24.8 °F 30.2 °F 93% 30.35 in 10.0 mi WSW 8.1 mph - 0.00 in   Clear
9:50 AM 32.0 °F 25.6 °F 30.2 °F 93% 30.35 in 10.0 mi West 6.9 mph - 0.00 in   Clear
10:10 AM 33.8 °F 27.0 °F 30.2 °F 87% 30.36 in 10.0 mi WSW 8.1 mph - 0.00 in   Clear
10:30 AM 35.6 °F 30.7 °F 32.0 °F 87% 30.36 in 10.0 mi West 5.8 mph - 0.00 in   Clear
10:50 AM 35.6 °F 30.7 °F 32.0 °F 87% 30.36 in 10.0 mi West 5.8 mph - 0.00 in   Clear
11:10 AM 37.4 °F 32.1 °F 32.0 °F 81% 30.36 in 10.0 mi West 6.9 mph - 0.00 in   Clear
11:30 AM 39.2 °F 33.6 °F 32.0 °F 75% 30.36 in 10.0 mi West 8.1 mph - 0.00 in   Clear
11:50 AM 39.2 °F 33.0 °F 32.0 °F 75% 30.36 in 10.0 mi West 9.2 mph - 0.00 in   Partly Cloudy
12:10 PM 39.2 °F 33.0 °F 32.0 °F 75% 30.36 in 10.0 mi West 9.2 mph - 0.00 in   Partly Cloudy
12:30 PM 42.8 °F 38.6 °F 33.8 °F 70% 30.36 in 10.0 mi West 6.9 mph - 0.00 in   Partly Cloudy
12:50 PM 42.8 °F 36.6 °F 32.0 °F 66% 30.35 in 10.0 mi WSW 11.5 mph - 0.00 in   Scattered Clouds
1:10 PM 42.8 °F 37.5 °F 32.0 °F 66% 30.34 in 10.0 mi West 9.2 mph - 0.00 in   Mostly Cloudy
1:30 PM 44.6 °F 39.7 °F 32.0 °F 61% 30.33 in 10.0 mi WSW 9.2 mph - 0.00 in   Mostly Cloudy
1:50 PM 42.8 °F 37.5 °F 30.2 °F 61% 30.33 in 10.0 mi West 9.2 mph - 0.00 in   Mostly Cloudy
2:10 PM 44.6 °F 38.8 °F 32.0 °F 61% 30.32 in 10.0 mi WNW 11.5 mph 19.6 mph 0.00 in   Mostly Cloudy
2:30 PM 44.6 °F 38.4 °F 30.2 °F 57% 30.32 in 10.0 mi WNW 12.7 mph 18.4 mph 0.00 in   Mostly Cloudy
2:50 PM 44.6 °F 41.4 °F 28.4 °F 53% 30.32 in 10.0 mi West 5.8 mph - 0.00 in   Mostly Cloudy
3:10 PM 44.6 °F 40.2 °F 28.4 °F 53% 30.31 in 10.0 mi West 8.1 mph 20.7 mph 0.00 in   Mostly Cloudy
3:30 PM 44.6 °F 40.2 °F 26.6 °F 49% 30.30 in 10.0 mi WSW 8.1 mph - 0.00 in   Mostly Cloudy
3:50 PM 44.6 °F 38.8 °F 26.6 °F 49% 30.30 in 10.0 mi WSW 11.5 mph - 0.00 in   Partly Cloudy
4:10 PM 46.4 °F 41.1 °F 26.6 °F 46% 30.30 in 10.0 mi WSW 11.5 mph 17.3 mph 0.00 in   Partly Cloudy
4:30 PM 44.6 °F 40.2 °F 26.6 °F 49% 30.29 in 10.0 mi West 8.1 mph - 0.00 in   Scattered Clouds
4:50 PM 46.4 °F 41.5 °F 24.8 °F 43% 30.28 in 10.0 mi SW 10.4 mph - 0.00 in   Mostly Cloudy
5:10 PM 42.8 °F 37.0 °F 23.0 °F 46% 30.29 in 10.0 mi WSW 10.4 mph - 0.00 in   Partly Cloudy
5:30 PM 44.6 °F 37.8 °F 24.8 °F 46% 30.28 in 10.0 mi WSW 15.0 mph - 0.00 in   Scattered Clouds
5:50 PM 44.6 °F 39.7 °F 24.8 °F 46% 30.28 in 10.0 mi WSW 9.2 mph - 0.00 in   Scattered Clouds
6:10 PM 42.8 °F 37.5 °F 24.8 °F 49% 30.28 in 10.0 mi WSW 9.2 mph - 0.00 in   Clear
6:30 PM 41.0 °F 36.4 °F 24.8 °F 53% 30.28 in 10.0 mi WSW 6.9 mph - 0.00 in   Clear
6:50 PM 39.2 °F 35.0 °F 24.8 °F 56% 30.27 in 10.0 mi SW 5.8 mph - 0.00 in   Clear
7:10 PM 37.4 °F 34.9 °F 24.8 °F 60% 30.27 in 10.0 mi SW 3.5 mph - 0.00 in   Clear
7:30 PM 35.6 °F 30.7 °F 26.6 °F 70% 30.27 in 10.0 mi South 5.8 mph - 0.00 in   Clear
7:50 PM 33.8 °F 29.6 °F 26.6 °F 75% 30.27 in 10.0 mi SSW 4.6 mph - 0.00 in   Clear
8:10 PM 35.6 °F 30.7 °F 24.8 °F 65% 30.26 in 10.0 mi SSW 5.8 mph - 0.00 in   Clear
8:30 PM 33.8 °F 28.6 °F 26.6 °F 75% 30.26 in 10.0 mi SSW 5.8 mph - 0.00 in   Clear
8:50 PM 33.8 °F 27.7 °F 24.8 °F 70% 30.25 in 10.0 mi South 6.9 mph - 0.00 in   Clear
9:10 PM 33.8 °F 27.7 °F 26.6 °F 75% 30.25 in 10.0 mi South 6.9 mph - 0.00 in   Clear
9:30 PM 33.8 °F 27.7 °F 26.6 °F 75% 30.24 in 10.0 mi South 6.9 mph - 0.00 in   Clear
9:50 PM 33.8 °F 27.7 °F 26.6 °F 75% 30.23 in 10.0 mi South 6.9 mph - 0.00 in   Clear
10:10 PM 33.8 °F 27.0 °F 26.6 °F 75% 30.23 in 10.0 mi SSW 8.1 mph - 0.00 in   Clear
10:30 PM 33.8 °F 27.7 °F 26.6 °F 75% 30.23 in 10.0 mi South 6.9 mph - 0.00 in   Clear
10:50 PM 33.8 °F 27.7 °F 26.6 °F 75% 30.23 in 10.0 mi South 6.9 mph - 0.00 in   Clear
11:10 PM 33.8 °F 27.7 °F 26.6 °F 75% 30.22 in 10.0 mi South 6.9 mph - 0.00 in   Clear
11:30 PM 33.8 °F 27.7 °F 26.6 °F 75% 30.22 in 10.0 mi South 6.9 mph - 0.00 in   Clear
11:50 PM 33.8 °F 28.6 °F 26.6 °F 75% 30.21 in 10.0 mi South 5.8 mph - 0.00 in   Clear